Simultaneous Nadir Overpasses (SNOs) Predictions

Prediction of SNOs between GOES-17 and AQUA Satellite Orbit:

Table of predicted SNOs for the next 14.0 days since TLE Epoch: 10/2/2021
Index Date Time (GOES-17) GOES-17 Lat,Lon AQUA Lat,Lon Distance(km) Time Diff (sec)
1 10/03/2021 22:36:30 -0.03,-137.24 0.48,-134.97 259.08 80
2 10/04/2021 10:55:04 0.03,-137.25 0.67,-140.12 326.67 80
3 10/06/2021 10:45:33 0.03,-137.27 0.02,-137.16 11.99 80
4 10/08/2021 10:33:23 0.03,-137.28 -0.63,-134.21 349.80 80
5 10/08/2021 22:52:06 -0.03,-137.28 -0.46,-139.40 240.28 80
6 10/10/2021 22:42:34 -0.03,-137.28 0.15,-136.44 96.39 80
7 10/11/2021 11:01:10 0.03,-137.29 0.94,-141.60 490.07 80
8 10/12/2021 22:30:22 -0.03,-137.28 0.76,-133.47 432.17 80
9 10/13/2021 10:48:58 0.02,-137.28 0.32,-138.63 154.48 80
10 10/15/2021 10:39:26 0.02,-137.27 -0.30,-135.67 180.90 80
11 10/15/2021 22:58:10 -0.01,-137.26 -0.78,-140.87 409.62 80
